[[{"header":{"parameterUnit":"m.s-1","parameterCategory":1,"la1":30.2991,"la2":30.254,"lo1":-89.0895,"lo2":-89.0444,"dx":0.0017,"dy":0.0017,"nx":28,"ny":28,"refTime":"2022-11-13T15:00:00:Z","depth":0,"parameterNumber":2,"parameterNumberName":"U-component_of_WINDS"},"data":[0,0,0,0,0,0,0,0,0,0,0,0,0,0,0,0,0,0,0,0,0,0,0,0,0,0,0,0,0,0,0,0,0,0,0,0,0,0,0,0,0,0,0,0,0,0,0,0,0,0,0,0,0,0,0,0,0,0,-0.467,-0.4671,0,-0.4719,-0.472,-0.472,-0.4724,-0.4723,-0.4723,-0.4722,-0.4773,-0.4775,-0.4777,0,0,0,0,0,0,0,0,0,0,0,0,0,-0.458,-0.4582,-0.467,-0.4671,-0.4671,-0.4719,-0.472,-0.4721,-0.4724,-0.4723,-0.4723,-0.4722,-0.4773,-0.4775,-0.4777,0,0,0,0,0,0,0,0,0,0,0,0,0,-0.4623,-0.4582,-0.467,-0.4679,-0.468,-0.4719,-0.472,-0.4721,-0.4724,-0.4723,-0.4723,-0.4722,-0.4772,-0.4775,-0.4778,-0.4811,0,0,-0.4786,-0.4787,0,0,0,0,0,0,0,0,-0.4621,-0.4626,-0.4677,-0.4678,-0.468,-0.4715,-0.4707,-0.4751,-0.4724,-0.4708,-0.4722,-0.4721,-0.4755,-0.4759,-0.477,-0.4814,-0.4816,-0.4786,-0.4788,-0.4789,-0.479,0,0,0,0,0,0,0,-0.4618,-0.4624,-0.469,-0.4678,-0.468,-0.4681,-0.4686,-0.4715,-0.4735,-0.4709,-0.4709,-0.4715,-0.4755,-0.4767,-0.4771,-0.4817,-0.4786,-0.4789,-0.4791,-0.4792,-0.489,-0.4891,0,0,0,0,0,0,-0.4613,-0.4622,-0.4688,-0.4691,-0.4648,-0.4683,-0.4689,-0.4704,-0.4735,-0.4739,-0.4716,-0.4715,-0.4763,-0.4768,-0.4773,-0.4814,-0.4789,-0.4792,-0.4793,-0.4889,-0.489,-0.4891,0,0,0,0,0,0,-0.4611,-0.4619,-0.4686,-0.4657,-0.4665,-0.4685,-0.4703,-0.4706,-0.4718,-0.474,-0.4743,-0.4724,-0.4762,-0.4769,-0.4801,-0.4816,-0.4793,-0.4796,-0.4888,-0.4889,-0.4891,-0.4897,0,0,0,0,0,0,-0.4608,-0.4618,-0.4631,-0.4657,-0.4667,-0.4714,-0.4704,-0.4707,-0.4722,-0.4722,-0.4749,-0.4752,-0.4762,-0.4797,-0.4804,-0.4819,-0.4798,-0.4887,-0.4889,-0.489,-0.4896,-0.4899,-0.4901,0,0,0,0,0,-0.4605,-0.4631,-0.4632,-0.464,-0.4683,-0.4715,-0.4721,-0.4731,-0.4723,-0.4737,-0.4751,-0.4752,-0.4813,-0.4801,-0.4808,-0.4825,-0.4886,-0.4888,-0.489,-0.4895,-0.4898,-0.4901,0,0,0,0,0,0,-0.4607,-0.4635,-0.4636,-0.4671,-0.469,-0.4715,-0.4733,-0.4734,-0.4757,-0.4755,-0.4768,-0.4774,-0.4806,-0.4818,-0.4804,-0.4859,-0.4849,-0.4852,-0.4849,-0.4853,-0.4855,-0.4852,-0.48,0,0,0,0,0,-0.4612,-0.4635,-0.4658,-0.4686,-0.4696,-0.4712,-0.4727,-0.4733,-0.4754,-0.4762,-0.4779,-0.4799,-0.4823,-0.4838,-0.4862,-0.4897,-0.4903,-0.4912,-0.4915,-0.4917,-0.492,-0.494,-0.4944,-0.4898,-0.4898,-0.4898,0,0,-0.4621,-0.4639,-0.4653,-0.4687,-0.4703,-0.4727,-0.472,-0.4745,-0.4763,-0.4766,-0.4798,-0.481,-0.4834,-0.4868,-0.4884,-0.488,-0.4934,-0.4919,-0.4921,-0.4923,-0.4942,-0.4947,-0.495,-0.4899,-0.4899,-0.4899,0,0,-0.4651,-0.4667,-0.4693,-0.4708,-0.4732,-0.4743,-0.4749,-0.4773,-0.4782,-0.4814,-0.4817,-0.4838,-0.4879,-0.4895,-0.4909,-0.4944,-0.4945,-0.4951,-0.4965,-0.4984,-0.4988,-0.4991,-0.5004,-0.5008,-0.4954,-0.4954,-0.4954,0,-0.4661,-0.4696,-0.4706,-0.4731,-0.4746,-0.4749,-0.4775,-0.479,-0.4821,-0.4831,-0.4825,-0.4876,-0.4892,-0.493,-0.4939,-0.495,-0.4957,-0.4949,-0.4986,-0.499,-0.4993,-0.5005,-0.501,-0.4955,-0.4955,-0.4955,-0.4955,0,-0.4706,-0.4731,-0.4749,-0.4777,-0.4794,-0.482,-0.4833,-0.4849,-0.4853,-0.4864,-0.4897,-0.4916,-0.4943,-0.4952,-0.4957,-0.4991,-0.4987,-0.4984,-0.4974,-0.4998,-0.5009,-0.5014,-0.4956,-0.4955,-0.4955,-0.4955,0,0,-0.474,-0.4773,-0.4779,-0.4792,-0.4818,-0.4838,-0.4863,-0.4889,-0.4902,-0.4923,-0.4944,-0.4978,-0.4975,-0.4991,-0.4997,-0.5014,-0.504,-0.5008,-0.5009,-0.5014,-0.5078,-0.5081,-0.5086,-0.5041,-0.5042,-0.5042,-0.5076,0,-0.4773,-0.4818,-0.4827,-0.4867,-0.489,-0.4892,-0.4915,-0.4933,-0.4944,-0.4964,-0.4976,-0.5,-0.4994,-0.5004,-0.502,-0.5033,-0.5053,-0.5031,-0.5061,-0.5062,-0.5056,-0.5092,-0.5096,-0.5127,-0.5081,-0.5082,-0.5082,0,-0.4818,-0.4839,-0.4881,-0.4903,-0.4913,-0.4933,-0.4957,-0.4977,-0.4997,-0.5004,-0.5021,-0.5025,-0.5052,-0.504,-0.5076,-0.5061,-0.5074,-0.5082,-0.5084,-0.5087,-0.5074,-0.5098,-0.5137,-0.5142,-0.509,-0.5089,-0.5089,0,-0.4839,-0.4878,-0.4907,-0.4918,-0.4945,-0.4959,-0.4971,-0.4991,-0.5005,-0.5026,-0.5036,-0.506,-0.5073,-0.5091,-0.5102,-0.5093,-0.5138,-0.5127,-0.5144,-0.5144,-0.5154,-0.5154,-0.5197,-0.5162,-0.5162,-0.5161,-0.5161,0,-0.4875,-0.4901,-0.4917,-0.4935,-0.4964,-0.4974,-0.5001,-0.5013,-0.503,-0.5051,-0.5055,-0.5074,-0.5087,-0.5108,-0.5116,-0.5145,-0.5151,-0.5157,-0.5159,-0.5157,-0.5156,-0.5166,-0.5165,-0.5163,-0.5162,-0.5162,-0.5162,0,-0.4904,-0.4916,-0.4948,-0.4971,-0.4977,-0.4997,-0.5016,-0.5034,-0.5044,-0.507,-0.5077,-0.5093,-0.5118,-0.513,-0.5161,-0.5167,-0.52,-0.52,-0.5193,-0.5194,-0.521,-0.5208,-0.5262,-0.5269,-0.5228,-0.5229,-0.5229,0,-0.4927,-0.4946,-0.497,-0.4984,-0.4996,-0.5019,-0.5034,-0.5044,-0.5059,-0.5084,-0.5098,-0.5123,-0.5144,-0.5183,-0.5198,-0.5222,-0.5223,-0.524,-0.5227,-0.5224,-0.5224,-0.5222,-0.5224,-0.5243,-0.5243,-0.5243,-0.5243,0,-0.4966,-0.4971,-0.4992,-0.5015,-0.5033,-0.5052,-0.507,-0.5081,-0.5094,-0.5111,-0.5136,-0.5152,-0.5183,-0.5208,-0.5232,-0.5245,-0.5246,-0.5247,-0.5253,-0.5251,-0.5246,-0.5249,-0.52,-0.5246,-0.5246,-0.5246,-0.5246,-0.5246,-0.4993,-0.501,-0.503,-0.5053,-0.5068,-0.5085,-0.5103,-0.5115,-0.5136,-0.5162,-0.5166,-0.5193,-0.5212,-0.5245,-0.5258,-0.5279,-0.5275,-0.5283,-0.5285,-0.5287,-0.5288,-0.5242,-0.5284,-0.5284,-0.5283,-0.5283,-0.5283,0,-0.5032,-0.5045,-0.5066,-0.5092,-0.511,-0.5109,-0.5129,-0.5145,-0.5168,-0.5186,-0.5206,-0.5235,-0.5258,-0.5274,-0.5298,-0.5312,-0.5313,-0.5318,-0.5317,-0.532,-0.529,-0.5283,-0.5316,-0.5316,-0.5316,-0.5316,-0.5316,-0.5316,-0.5055,-0.5085,-0.5091,-0.5128,-0.514,-0.5166,-0.5178,-0.5193,-0.5208,-0.5239,-0.5259,-0.5269,-0.5286,-0.5311,-0.5333,-0.5337,-0.5345,-0.535,-0.5354,-0.5326,-0.5322,-0.5319,-0.5313,-0.5352,-0.5352,-0.5383,-0.5383,-0.5383]},{"header":{"parameterUnit":"m.s-1","parameterCategory":1,"la1":30.2991,"la2":30.254,"lo1":-89.0895,"lo2":-89.0444,"dx":0.0017,"dy":0.0017,"nx":28,"ny":28,"refTime":"2022-11-13T15:00:00:Z","depth":0,"parameterNumber":3,"parameterNumberName":"V-component_of_WINDS"},"data":[0,0,0,0,0,0,0,0,0,0,0,0,0,0,0,0,0,0,0,0,0,0,0,0,0,0,0,0,0,0,0,0,0,0,0,0,0,0,0,0,0,0,0,0,0,0,0,0,0,0,0,0,0,0,0,0,0,0,-6.2877,-6.2878,0,-6.2958,-6.2959,-6.296,-6.2928,-6.2926,-6.2924,-6.2922,-6.2999,-6.3002,-6.3006,0,0,0,0,0,0,0,0,0,0,0,0,0,-6.2688,-6.2692,-6.2877,-6.2878,-6.2879,-6.2958,-6.2959,-6.296,-6.2928,-6.2926,-6.2924,-6.2921,-6.2998,-6.3002,-6.3007,0,0,0,0,0,0,0,0,0,0,0,0,0,-6.2769,-6.2693,-6.2876,-6.2872,-6.2873,-6.2958,-6.2959,-6.296,-6.2929,-6.2926,-6.2923,-6.292,-6.2996,-6.3002,-6.3007,-6.3099,0,0,-6.3025,-6.3027,0,0,0,0,0,0,0,0,-6.2765,-6.2776,-6.2872,-6.2873,-6.2874,-6.293,-6.292,-6.3006,-6.2929,-6.2907,-6.2922,-6.2919,-6.2978,-6.2985,-6.3006,-6.3102,-6.3105,-6.3025,-6.3028,-6.3031,-6.3033,0,0,0,0,0,0,0,-6.2759,-6.2773,-6.2909,-6.2873,-6.2874,-6.2865,-6.2873,-6.2937,-6.2957,-6.2909,-6.2907,-6.2917,-6.2978,-6.3001,-6.3007,-6.3107,-6.3025,-6.303,-6.3033,-6.3036,-6.3282,-6.3285,0,0,0,0,0,0,-6.2754,-6.2768,-6.2906,-6.2911,-6.2811,-6.287,-6.288,-6.2915,-6.2956,-6.296,-6.292,-6.2915,-6.2992,-6.3001,-6.301,-6.312,-6.3031,-6.3036,-6.3039,-6.3279,-6.3283,-6.3286,0,0,0,0,0,0,-6.275,-6.2767,-6.2903,-6.2839,-6.2856,-6.2877,-6.2916,-6.2918,-6.2941,-6.2965,-6.2967,-6.294,-6.299,-6.3002,-6.3077,-6.3122,-6.3039,-6.3044,-6.3275,-6.328,-6.3284,-6.3341,0,0,0,0,0,0,-6.2745,-6.2766,-6.2802,-6.284,-6.2859,-6.2971,-6.2919,-6.2921,-6.2951,-6.2947,-6.2984,-6.2987,-6.2989,-6.3069,-6.3083,-6.3129,-6.3048,-6.3271,-6.3277,-6.3283,-6.3335,-6.3347,-6.3357,0,0,0,0,0,-6.2738,-6.2813,-6.2804,-6.2821,-6.2905,-6.2973,-6.2984,-6.2986,-6.2955,-6.2991,-6.3006,-6.2986,-6.3115,-6.3077,-6.3092,-6.3141,-6.3268,-6.3276,-6.3283,-6.333,-6.3345,-6.3357,0,0,0,0,0,0,-6.2776,-6.2818,-6.2808,-6.2898,-6.2933,-6.2968,-6.3013,-6.3001,-6.3044,-6.3037,-6.3036,-6.3045,-6.3123,-6.3139,-6.3096,-6.3231,-6.3187,-6.3197,-6.3218,-6.3232,-6.3243,-6.3237,-6.3053,0,0,0,0,0,-6.2796,-6.285,-6.2882,-6.2957,-6.2976,-6.2992,-6.3021,-6.302,-6.3055,-6.3069,-6.309,-6.3123,-6.3171,-6.3202,-6.3248,-6.3338,-6.3345,-6.3378,-6.3389,-6.3398,-6.3407,-6.3456,-6.3471,-6.3309,-6.3309,-6.3309,0,0,-6.2835,-6.2864,-6.2898,-6.2966,-6.2993,-6.3047,-6.3004,-6.3063,-6.3102,-6.3077,-6.315,-6.3167,-6.3203,-6.3287,-6.3324,-6.3303,-6.3454,-6.3407,-6.3414,-6.3418,-6.3465,-6.348,-6.3494,-6.3314,-6.3313,-6.3313,0,0,-6.2934,-6.2962,-6.3029,-6.3058,-6.31,-6.311,-6.3126,-6.3164,-6.3175,-6.3249,-6.3231,-6.3277,-6.336,-6.3387,-6.3412,-6.3523,-6.3506,-6.3538,-6.3595,-6.3643,-6.3656,-6.3667,-6.3707,-6.3721,-6.3547,-6.3547,-6.3547,0,-6.2977,-6.306,-6.3064,-6.3125,-6.3156,-6.3138,-6.3205,-6.3231,-6.3285,-6.3306,-6.3281,-6.3386,-6.3409,-6.3499,-6.3526,-6.3547,-6.3564,-6.3533,-6.3654,-6.3665,-6.3676,-6.3714,-6.3729,-6.3551,-6.355,-6.355,-6.3549,0,-6.3111,-6.3169,-6.3217,-6.3273,-6.3309,-6.3372,-6.3384,-6.3419,-6.3415,-6.3428,-6.3503,-6.3531,-6.3582,-6.3603,-6.3599,-6.3693,-6.3678,-6.3654,-6.3609,-6.3695,-6.3731,-6.3745,-6.3556,-6.3554,-6.3553,-6.3552,0,0,-6.3235,-6.3294,-6.3312,-6.3337,-6.3384,-6.3427,-6.3489,-6.3542,-6.3572,-6.361,-6.3662,-6.3733,-6.3712,-6.374,-6.3738,-6.378,-6.3867,-6.3751,-6.3752,-6.3772,-6.3972,-6.399,-6.4007,-6.3857,-6.386,-6.3862,-6.3969,0,-6.3338,-6.3451,-6.3457,-6.3558,-6.3611,-6.3596,-6.365,-6.3683,-6.3697,-6.3742,-6.3756,-6.3807,-6.3775,-6.3792,-6.3833,-6.3848,-6.3907,-6.384,-6.3903,-6.3905,-6.3895,-6.4025,-6.4044,-6.4144,-6.3983,-6.3985,-6.3987,0,-6.3473,-6.3519,-6.3627,-6.3666,-6.3689,-6.3738,-6.3787,-6.3831,-6.3868,-6.3875,-6.3908,-6.39,-6.3963,-6.3917,-6.4002,-6.3956,-6.3982,-6.3994,-6.3997,-6.4003,-6.3951,-6.4034,-6.4176,-6.4191,-6.4009,-6.4007,-6.4006,0,-6.3554,-6.3641,-6.3717,-6.374,-6.3788,-6.3823,-6.3844,-6.3879,-6.391,-6.3952,-6.3973,-6.402,-6.4047,-6.4083,-6.4089,-6.4055,-6.4174,-6.4128,-6.418,-6.418,-6.4206,-6.4204,-6.4353,-6.4223,-6.4223,-6.4222,-6.4222,0,-6.3668,-6.3734,-6.3754,-6.3801,-6.3874,-6.388,-6.3952,-6.397,-6.4002,-6.405,-6.4039,-6.4084,-6.4089,-6.4135,-6.414,-6.421,-6.4221,-6.4227,-6.4228,-6.4229,-6.4228,-6.4245,-6.4238,-6.4226,-6.4226,-6.4225,-6.4224,0,-6.377,-6.3786,-6.3868,-6.3908,-6.392,-6.3972,-6.4005,-6.4049,-6.4062,-6.4124,-6.4138,-6.4158,-6.4212,-6.4222,-6.4284,-6.4287,-6.4371,-6.4364,-6.4359,-6.4358,-6.441,-6.4405,-6.4575,-6.4598,-6.4453,-6.4454,-6.4456,0,-6.3842,-6.3893,-6.3939,-6.3973,-6.3997,-6.405,-6.4083,-6.409,-6.4125,-6.4172,-6.421,-6.4263,-6.4306,-6.4393,-6.4412,-6.446,-6.4454,-6.4511,-6.4461,-6.446,-6.4455,-6.4452,-6.4457,-6.452,-6.4521,-6.4523,-6.4524,0,-6.3968,-6.3974,-6.4023,-6.4076,-6.4117,-6.4158,-6.4197,-6.4224,-6.4236,-6.4275,-6.4332,-6.4366,-6.4432,-6.4485,-6.4533,-6.4552,-6.454,-6.4539,-6.4554,-6.4555,-6.455,-6.4554,-6.4385,-6.4535,-6.4534,-6.4533,-6.4532,-6.4532,-6.4056,-6.4102,-6.4142,-6.4198,-6.4229,-6.4266,-6.431,-6.4329,-6.4378,-6.4434,-6.4434,-6.4496,-6.4532,-6.4596,-6.4619,-6.4666,-6.4648,-6.4669,-6.4674,-6.4679,-6.4685,-6.4543,-6.4675,-6.4675,-6.4674,-6.4674,-6.4674,0,-6.4182,-6.4208,-6.4259,-6.4316,-6.436,-6.4347,-6.439,-6.4426,-6.4482,-6.4518,-6.4562,-6.4627,-6.4678,-6.4702,-6.4752,-6.4786,-6.4781,-6.4799,-6.4796,-6.4801,-6.4698,-6.468,-6.4802,-6.4802,-6.4802,-6.4802,-6.4802,-6.4802,-6.4252,-6.4328,-6.434,-6.443,-6.4455,-6.4518,-6.4544,-6.4577,-6.4606,-6.4681,-6.4725,-6.4741,-6.4771,-6.4824,-6.4871,-6.4876,-6.4895,-6.4915,-6.4918,-6.4821,-6.4808,-6.4796,-6.4779,-6.4919,-6.4919,-6.5017,-6.5018,-6.5018]}]]